Regional Weather Roundup
Issued by NWS

Home | Current Version | Previous Version | Graphics & Text | Print | Product List | Glossary On
Versions: 1 2 3 4 5 6 7 8 9 10 11 12 13 14 15 16 17 18 19 20 21 22 23 24 25 26 27 28 29 30 31 32 33 34 35 36 37 38 39 40 41 42 43 44 45 46 47 48 49 50
000
ASUS45 KABQ 251310
RWRNM
NEW MEXICO REGIONAL WEATHER ROUNDUP
NATIONAL WEATHER SERVICE ALBUQUERQUE NM
700 AM MDT SAT MAR 25 2017

NOTE: "FAIR" MEANS FEW OR NO CLOUDS BELOW 12,000 FEET AGL WITH NO
       SIGNIFICANT WEATHER OR OBSTRUCTIONS TO VISION.

      THIS PRODUCT IS RELEASED AS TWO VERSIONS.  ONE VERSION NEAR
      THE TOP OF THE HOUR CONTAINING PRELIMINARY DATA FROM ALBUQUERQUE
      AND OTHER STATIONS.  A FINAL VERSION WITH ADDITIONAL DATA IS
      ISSUED ABOUT 10 MINUTES AFTER THE HOUR.

NMZ501-503-504-510>518-251400-
NORTHWEST PLATEAU/NORTHCENTRAL MOUNTAINS

CITY           SKY/WX    TMP DP  RH WIND       PRES   REMARKS
FARMINGTON     FAIR      32  24  72 E9        30.12F WCI  24
LOS ALAMOS     FAIR      40  23  49 W5        30.20S
SANTA FE       FAIR      29  28  96 NW5       30.17R WCI  24
TAOS             N/A     27  18  69 N3        30.21S
ANGEL FIRE     FAIR      16  14  93 N3        30.23R FOG

$$
NMZ402-403-502-505>509-251400-
WESTCENTRAL MOUNTAINS/SOUTHWEST MOUNTAINS

CITY           SKY/WX    TMP DP  RH WIND       PRES   REMARKS
GALLUP         FAIR      24  21  88 CALM      30.17S
GRANTS         FAIR      23  18  79 NW6       30.21R WCI  16
SILVER CITY    FAIR      37  24  59 N9        30.13S WCI  31

$$
NMZ407-409-411-412-251400-
SOUTHERN DESERTS

CITY           SKY/WX    TMP DP  RH WIND       PRES   REMARKS
DEMING         FAIR      34  27  75 NW3       30.12S
LAS CRUCES     FAIR      41  24  52 CALM      30.13R
HOLLOMAN AFB   FAIR      38  23  54 NE8       30.17S WCI  32
ALAMOGORDO     FAIR      43  23  45 N7        30.15S
T OR C         FAIR      43  21  41 NW7       30.13R

$$
NMZ519>523-251400-
CENTRAL VALLEYS/CENTRAL HIGHLANDS

CITY           SKY/WX    TMP DP  RH WIND       PRES   REMARKS
ALBUQUERQUE    FAIR      42  21  43 N6        30.16S
DOUBLE EAGLE   CLEAR     30  18  59 VRB3      30.17S
MORIARTY ARPT  FAIR      19  17  92 N3        30.17F
CLINES CORNERS FAIR      32  21  64 NW18      30.15F WCI  20
BELEN          FAIR      32  19  58 N6        30.16S WCI  27
SOCORRO        FAIR      40  23  51 SW5       30.15S

$$
NMZ524>526-539-540-251400-
SOUTHCENTRAL MOUNTAINS

CITY           SKY/WX    TMP DP  RH WIND       PRES   REMARKS
RUIDOSO        FAIR      43  19  39 SW3       30.21R

$$
NMZ527>531-251400-
NORTHEAST HIGHLANDS/NORTHEAST PLAINS

CITY           SKY/WX    TMP DP  RH WIND       PRES   REMARKS
LAS VEGAS      FAIR      24  21  88 E5        30.13S WCI  18
RATON          FAIR      24  21  88 E6        30.12S WCI  17
CLAYTON        FAIR      32  30  92 W7        30.11F WCI  26

$$
NMZ532>537-251400-
EASTCENTRAL PLAINS

CITY           SKY/WX    TMP DP  RH WIND       PRES   REMARKS
TUCUMCARI      FAIR      28  24  85 S5        30.12S WCI  23
CANNON AFB     FAIR      34  29  83 E5        30.14F WCI  30
CLOVIS AIRPORT FAIR      30  25  80 N6        30.14F WCI  24

$$
NMZ028-029-538-251400-
SOUTHEAST PLAINS

CITY           SKY/WX    TMP DP  RH WIND       PRES   REMARKS
ROSWELL        FAIR      35  23  61 SW6       30.16F WCI  30
ARTESIA        FAIR      39  25  56 SW10      30.17S WCI  32
CARLSBAD       FAIR      36  25  64 SW7       30.16S WCI  30
HOBBS          CLEAR     36  28  75 VRB5      30.18S WCI  32


$$




USA.gov is the U.S. government's official web portal to all federal, state and local government web resources and services.